This demonstration page uses our WeatherBlox Daily Observations layout. Learn more.

Hourly Observations for October 27, 2019

Temp ( °F °C ) Dew Point ( °F °C ) Humidity (%) Winds ( mph kmh ) Pressure ( in mb ) Visibility ( mi km ) Precip ( " mm )
12:15 am 00:15 Clear 42 5.3 34 0.9 74 74 N 14 22 29.85 1011 10 16.0934 0 0
12:35 am 00:35 Clear 41 5 33 0.6 73 73 N 18 30 29.85 1011 10 16.0934 0 0
12:55 am 00:55 Clear 40 4.6 33 0.5 75 75 N 17 28 29.88 1012 10 16.0934 0 0
1:15 am 01:15 Clear 39 4.1 32 0.2 76 76 N 14 22 29.91 1013 10 16.0934 0 0
1:35 am 01:35 Clear 39 3.7 32 0 77 77 N 13 20 29.94 1014 10 16.0934 0 0
1:55 am 01:55 Clear 38 3.5 32 0 78 78 N 17 28 29.94 1014 10 16.0934 0 0
2:15 am 02:15 Clear 38 3.3 32 -0.2 78 78 N 15 24 29.94 1014 10 16.0934 0 0
2:35 am 02:35 Partly Cloudy 37 3 32 -0.2 80 80 N 13 20 29.97 1015 10 16.0934 0 0
2:55 am 02:55 Cloudy 38 3.5 32 0 78 78 N 15 24 29.97 1015 10 16.0934 0 0
3:15 am 03:15 Cloudy 39 4 32 0.1 76 76 N 20 31 29.97 1015 10 16.0934 0 0
3:35 am 03:35 Cloudy 39 3.8 32 0 77 77 N 20 31 30 1016 10 16.0934 0 0
3:55 am 03:55 Cloudy 38 3.6 32 -0.1 77 77 N 18 30 30 1016 10 16.0934 0 0
4:15 am 04:15 Cloudy 38 3.5 31 -0.4 76 76 N 21 33 30 1016 10 16.0934 0 0
4:35 am 04:35 Cloudy 38 3.5 31 -0.3 76 76 N 18 30 30 1016 10 16.0934 0 0
4:55 am 04:55 Cloudy 38 3.2 31 -0.5 77 77 N 26 43 30 1016 10 16.0934 0 0
5:15 am 05:15 Cloudy 38 3.2 31 -0.6 76 76 N 22 35 30.03 1017 10 16.0934 0 0
5:35 am 05:35 Cloudy 38 3.1 31 -0.6 77 77 N 18 30 30.03 1017 10 16.0934 0 0
5:55 am 05:55 Cloudy 38 3.1 31 -0.6 77 77 N 21 33 30.06 1018 10 16.0934 0 0
6:15 am 06:15 Cloudy 37 3 31 -0.8 76 76 N 15 24 30.06 1018 10 16.0934 0 0
6:35 am 06:35 Cloudy 37 2.9 30 -0.9 76 76 N 20 31 30.06 1018 10 16.0934 0 0
6:55 am 06:55 Cloudy 37 2.8 30 -1.1 76 76 N 22 35 30.12 1020 10 16.0934 0 0
7:15 am 07:15 Cloudy 36 2.1 29 -1.4 78 78 N 21 33 30.12 1020 10 16.0934 0 0
7:35 am 07:35 Cloudy 35 1.8 29 -1.9 77 77 N 22 35 30.12 1020 10 16.0934 0 0
7:55 am 07:55 Cloudy 35 1.5 28 -2.1 77 77 N 18 30 30.12 1020 10 16.0934 0 0
8:15 am 08:15 Cloudy 35 1.5 28 -2 78 78 N 21 33 30.12 1020 10 16.0934 0 0
8:35 am 08:35 Cloudy 35 1.5 28 -2.1 77 77 N 20 31 30.12 1020 10 16.0934 0 0
8:55 am 08:55 Cloudy 35 1.4 28 -2.1 78 78 N 18 30 30.15 1021 10 16.0934 0 0
9:15 am 09:15 Cloudy 35 1.5 28 -2.5 75 75 N 20 31 30.18 1022 10 16.0934 0 0
9:35 am 09:35 Cloudy 35 1.5 28 -2.5 75 75 N 21 33 30.18 1022 10 16.0934 0 0
9:55 am 09:55 Cloudy 35 1.6 27 -2.6 74 74 N 21 33 30.18 1022 10 16.0934 0 0
10:15 am 10:15 Cloudy 35 1.8 28 -2.5 73 73 N 16 26 30.18 1022 10 16.0934 0 0
10:35 am 10:35 Cloudy 36 2.1 28 -2.4 72 72 N 21 33 30.18 1022 10 16.0934 0 0
10:55 am 10:55 Cloudy 36 2.4 28 -2.5 70 70 N 15 24 30.18 1022 10 16.0934 0 0
11:15 am 11:15 Cloudy 36 2.4 27 -2.6 70 70 N 18 30 30.18 1022 10 16.0934 0 0
11:35 am 11:35 Cloudy 36 2.3 27 -2.8 69 69 N 16 26 30.18 1022 10 16.0934 0 0
11:55 am 11:55 Cloudy 36 2.2 26 -3.2 68 68 N 17 28 30.21 1023 10 16.0934 0 0
12:15 pm 12:15 Cloudy 37 3 26 -3.2 64 64 N 18 30 30.21 1023 10 16.0934 0 0
12:35 pm 12:35 Cloudy 39 3.7 26 -3.3 61 61 N 18 30 30.21 1023 10 16.0934 0 0
12:55 pm 12:55 Cloudy 38 3.1 26 -3.5 62 62 N 15 24 30.21 1023 10 16.0934 0 0
1:15 pm 13:15 Cloudy 38 3.3 26 -3.6 61 61 N 17 28 30.18 1022 10 16.0934 0 0
1:35 pm 13:35 Mostly Cloudy 39 4 26 -3.3 59 59 N 20 31 30.15 1021 10 16.0934 0 0
1:55 pm 13:55 Mostly Cloudy 40 4.6 26 -3.5 56 56 N 18 30 30.15 1021 10 16.0934 0 0
2:15 pm 14:15 Cloudy 40 4.2 25 -4 56 56 NNW 14 22 30.15 1021 10 16.0934 0 0
2:35 pm 14:35 Cloudy 41 4.8 24 -4.3 52 52 N 21 33 30.15 1021 10 16.0934 0 0
2:55 pm 14:55 Cloudy 39 4.1 24 -4.6 54 54 N 18 30 30.15 1021 10 16.0934 0 0
3:15 pm 15:15 Cloudy 39 3.8 23 -4.9 53 53 N 17 28 30.15 1021 10 16.0934 0 0
3:35 pm 15:35 Cloudy 38 3.5 23 -4.9 55 55 N 16 26 30.18 1022 10 16.0934 0 0
3:55 pm 15:55 Cloudy 38 3.6 23 -5.1 53 53 N 21 33 30.15 1021 10 16.0934 0 0
4:15 pm 16:15 Cloudy 38 3.5 22 -5.5 52 52 N 20 31 30.18 1022 10 16.0934 0 0
4:35 pm 16:35 Cloudy 38 3.4 22 -5.4 53 53 N 16 26 30.18 1022 10 16.0934 0 0
4:55 pm 16:55 Cloudy 37 3 22 -5.6 54 54 N 17 28 30.18 1022 10 16.0934 0 0
5:15 pm 17:15 Cloudy 37 2.8 22 -5.6 54 54 N 16 26 30.21 1023 10 16.0934 0 0
5:35 pm 17:35 Cloudy 37 2.5 21 -5.9 54 54 N 17 28 30.21 1023 10 16.0934 0 0
5:55 pm 17:55 Cloudy 37 2.5 21 -5.9 54 54 N 18 30 30.21 1023 10 16.0934 0 0
6:15 pm 18:15 Cloudy 36 2.1 20 -6.4 54 54 N 14 22 30.21 1023 10 16.0934 0 0
6:35 pm 18:35 Cloudy 36 2 20 -6.7 53 53 N 15 24 30.21 1023 10 16.0934 0 0
6:55 pm 18:55 Cloudy 34 1.3 20 -6.8 55 55 N 15 24 30.21 1023 10 16.0934 0 0
7:15 pm 19:15 Cloudy 34 1.1 19 -7 55 55 N 14 22 30.21 1023 10 16.0934 0 0
7:35 pm 19:35 Cloudy 34 0.9 19 -7.1 56 56 N 16 26 30.21 1023 10 16.0934 0 0
7:55 pm 19:55 Cloudy 33 0.7 19 -7.5 55 55 N 14 22 30.24 1024 10 16.0934 0 0
8:15 pm 20:15 Cloudy 33 0.6 18 -7.6 55 55 N 15 24 30.27 1025 10 16.0934 0 0
8:35 pm 20:35 Cloudy 33 0.6 18 -7.9 53 53 N 13 20 30.27 1025 10 16.0934 0 0
8:55 pm 20:55 Cloudy 33 0.5 18 -7.7 55 55 N 15 24 30.27 1025 10 16.0934 0 0
9:15 pm 21:15 Cloudy 32 0.2 18 -7.7 56 56 N 16 26 30.27 1025 10 16.0934 0 0
9:35 pm 21:35 Cloudy 32 0 17 -8.2 54 54 N 17 28 30.3 1026 10 16.0934 0 0
9:55 pm 21:55 Cloudy 32 0 17 -8.1 55 55 N 14 22 30.3 1026 10 16.0934 0 0
10:15 pm 22:15 Cloudy 31 -0.5 16 -8.7 54 54 N 16 26 30.3 1026 10 16.0934 0 0
10:35 pm 22:35 Cloudy 31 -0.6 17 -8.6 55 55 N 16 26 30.3 1026 10 16.0934 0 0
10:55 pm 22:55 Cloudy 31 -0.7 17 -8.5 56 56 N 14 22 30.3 1026 10 16.0934 0 0
11:15 pm 23:15 Cloudy 31 -0.7 17 -8.5 56 56 N 12 19 30.33 1027 10 16.0934 0 0
11:35 pm 23:35 Cloudy 30 -0.9 17 -8.5 57 57 N 13 20 30.33 1027 10 16.0934 0 0
11:55 pm 23:55 Cloudy 30 -1 17 -8.5 57 57 N 13 20 30.3 1026 10 16.0934 0 0

Powered by AerisWeather